SCP
0 0 0 0 0 0 0 0 0 0 0 0 0 0 0 0 0 0 0 0 0 0 0 0 0 0 0 0 0 0 0 0 0 0 0 0 0 0 0 0 0 0 0 0
0 0 0 0 0 0 0 0 0 0 0 0 0 0 0 0 0 0 0 0 0 0 0 0 0 0 0 0 0 0 0 0 0 0 0 0 0 0 0 0 0 0 0 0
0 0 0 0 0 0 0 0 0 0 0 0 0 0 0 0 0 0 0 0 0 0 0 0 0 0 0 0 0 0 0 0 0 0 0 0 0 0 0 0 0 0 0 0
0 0 0 0 0 0 0 0 0 0 0 0 0 0 0 0 0 0 0 0 0 0 0 0 0 0 0 0 0 0 0 0 0 0 0 0 0 0 0 0 0 0 0 0
0 0 0 0 0 0 0 0 0 0 0 0 0 0 0 0 0 0 0 0 0 0 0 0 0 0 0 0 0 0 0 0 0 0 0 0 0 0 0 0 0 0 0 0
0 0 0 0 0 0 0 0 0 0 0 0 0 0 0 0 0 0 0 0 0 0 0 0 0 0 0 0 0 0 0 0 0 0 0 0 0 0 0 0 0 0 0 0
0 0 0 0 0 0 0 0 0 0 0 0 0 0 0 0 0 0 0 0 0 0 0 0 0 0 0 0 0 0 0 0 0 0 0 0 0 0 0 0 0 0 0 0
0 0 0 0 0 0 0 0 0 0 0 0 0 0 0 0 0 0 0 0 0 0 0 0 0 0 0 0 0 0 0 0 0 0 0 0 0 0 0 0 0 0 0 0
0 0 0 0 0 0 0 0 0 0 0 0 0 0 0 0 0 0 0 0 0 0 0 0 0 0 0 0 0 0 0 0 0 0 0 0 0 0 0 0 0 0 0 0
0 0 0 0 0 0 0 0 0 0 0 0 0 0 0 0 0 0 0 0 0 0 0 0 0 0 0 0 0 0 0 0 0 0 0 0 0 0 0 0 0 0 0 0
0 0 0 0 0 0 0 0 0 0 0 0 0 0 0 0 0 0 0 0 0 0 0 0 0 0 0 0 0 0 0 0 0 0 0 0 0 0 0 0 0 0 0 0
0 0 0 0 0 0 0 0 0 0 0 0 0 0 0 0 0 0 0 0 0 0 0 0 0 0 0 0 0 0 0 0 0 0 0 0 0 0 0 0 0 0 0 0
0 0 0 0 0 0 0 0 0 0 0 0 0 0 0 0 0 0 0 0 0 0 0 0 0 0 0 0 0 0 0 0 0 0 0 0 0 0 0 0 0 0 -0 -0
0 0 0 0 0 0 0 0 0 0 0 0 0 0 0 0 -0 0 0 0 0 0 0 0 0 0 0 0 0 0 0 0 0 0 0 0 0 0 0 0 0 0 0 -0
0 0 0 0 0 0 0 0 0 0 0 0 0 0 0 -0 -0 -0 0 0 0 0 0 0 0 0 0 0 0 0 0 0 0 0 0 0 0 0 0 0 0 0 0 0
0 0 0 0 0 0 0 0 0 0 0 0 0 0 0 0 -0 -0 0 0 0 0 0 0 0 0 0 0 0 0 0 0 0 0 0 0 0 0 0 0 0 0 0 0
0 0 0 0 0 0 0 0 0 0 0 0 0 0 0 0 -0 -0 -0 0 0 0 0 0 0 0 0 0 0 0 0 0 0 0 0 0 0 0 0 0 0 0 0 0
0 0 0 0 0 0 0 0 0 0 0 0 0 0 0 0 0 0 0 0 0 0 0 0 0 0 0 0 0 0 0 0 0 0 0 0 0 0 0 0 0 0 0 0
0 0 0 0 0 0 0 0 0 0 0 0 0 0 0 0 0 0 0 0 0 0 0 0 0 0 0 0 0 0 0 0 0 0 0 0 0 0 0 0 0 0 0 0
0 0 0 0 0 0 0 0 0 0 0 0 0 0 0 0 0 0 0 0 0 0 0 0 0 0 0 0 0 0 0 0 0 0 0 0 0 0 0 0 0 0 0 0
0 0 0 0 0 0 0 0 0 0 0 0 0 0 0 0 0 0 0 0 0 0 0 0 0 0 0 0 0 0 0 0 0 0 0 0 0 0 0 0 0 0 0 0
0 0 0 0 0 0 0 0 0 0 0 0 0 0 0 0 0 0 0 0 0 0 0 0 0 0 0 0 0 0 0 0 0 0 0 0 0 0 0 0 0 0 0 0
0 0 0 0 0 0 0 0 0 0 0 0 0 0 0 0 0 0 0 0 0 0 0 0 0 0 0 0 0 0 0 0 0 0 0 0 0 0 0 0 0 0 0 0
0 0 0 0 0 0 0 0 0 0 0 0 0 0 0 0 0 0 0 0 0 0 0 0 0 0 0 0 0 0 0 0 0 0 0 0 0 0 0 0 0 0 0 0
0 0 0 0 0 0 0 0 0 0 0 0 0 0 0 0 0 0 0 0 0 0 0 0 0 0 0 0 0 0 0 0 0 0 0 0 0 0 0 0 0 0 0 0
0 0 0 0 0 0 0 0 0 0 0 0 0 0 0 0 0 0 0 0 0 0 0 0 0 0 0 0 0 0 0 0 0 0 0 0 0 0 0 0 0 0 0 0
Wind_Speed
4 4 7 9 10 8 7 9 9 8 6 8 10 10 8 6 6 6 7 6 6 5 4 5 6 6 6 6 8 8 8 7 6 5 4 4 3 3 3 3 4 4 3 3
4 7 8 8 9 9 10 8 7 4 2 5 8 11 9 8 8 6 6 6 5 5 5 5 5 6 6 7 7 8 8 8 7 5 4 3 4 3 3 3 3 3 4 3
5 4 7 8 7 9 10 7 6 3 2 4 4 8 9 7 6 4 4 4 4 5 5 5 4 5 5 6 7 7 8 8 7 6 4 5 4 3 2 3 2 3 4 3
5 5 5 6 7 6 7 5 5 5 3 3 4 5 7 8 7 6 4 3 3 3 4 4 4 4 4 4 5 7 8 8 7 7 7 8 5 4 4 3 3 3 4 4
3 4 4 5 6 6 3 2 5 6 5 4 5 4 5 7 7 7 5 3 2 2 3 3 3 3 3 3 4 5 8 8 8 7 7 7 5 3 4 4 4 3 3 3
3 2 3 4 5 4 1 0 2 3 2 6 8 6 5 5 8 7 5 3 3 2 2 3 3 3 2 3 3 4 7 7 8 8 7 6 6 6 6 6 5 4 3 3
2 1 1 1 1 1 1 3 2 2 4 6 5 6 3 1 3 5 5 4 3 2 3 3 3 2 2 3 3 4 6 7 7 8 7 6 6 7 7 6 6 5 3 2
1 2 1 2 1 3 4 3 3 3 4 2 4 6 2 1 3 4 4 4 3 2 2 2 3 3 2 3 3 4 6 6 7 7 7 6 5 4 4 5 5 5 4 3
2 3 2 3 3 3 4 4 3 2 2 3 5 2 1 3 4 4 4 3 2 2 1 1 2 2 2 2 3 3 5 6 6 7 6 6 5 5 4 5 4 3 3 3
3 3 3 3 2 2 2 2 1 2 2 3 4 4 3 4 2 2 2 2 2 2 1 1 1 1 1 1 2 2 4 5 6 6 6 5 5 5 5 5 5 4 4 4
2 1 3 2 1 2 1 1 2 2 3 2 2 1 4 3 3 1 2 2 1 1 1 1 1 1 1 1 1 2 3 4 5 5 6 5 5 5 5 5 5 4 4 5
2 1 2 3 1 2 2 1 2 2 3 3 1 1 3 5 5 5 4 4 3 3 3 3 2 2 1 1 1 1 2 3 4 5 6 6 5 5 5 5 5 4 4 4
3 1 1 1 1 2 1 2 2 2 2 3 2 1 3 5 6 5 4 3 3 4 5 5 4 2 2 1 1 1 1 3 3 5 6 6 5 5 5 5 5 5 4 4
4 1 1 2 3 2 3 3 2 2 2 3 2 1 2 4 4 4 4 3 3 4 5 5 5 4 3 2 2 1 1 2 3 5 6 6 5 5 5 5 5 4 4 4
4 1 2 5 5 2 2 3 3 3 4 3 2 2 2 3 2 2 3 3 3 4 5 5 4 4 4 4 3 2 1 2 3 5 5 5 5 5 5 4 4 4 4 4
3 2 3 4 3 1 2 3 3 4 3 3 3 4 4 4 4 3 3 3 3 4 4 4 4 4 4 3 3 3 1 1 3 5 5 5 6 5 5 5 4 4 4 4
2 2 2 2 3 2 2 2 2 2 2 2 3 4 4 4 4 4 4 4 3 3 4 3 3 3 3 3 3 3 1 1 3 4 5 5 6 5 5 5 5 4 4 4
1 2 2 2 2 2 2 2 2 1 2 2 2 4 4 4 3 3 3 3 3 4 4 3 3 2 3 3 3 3 1 2 3 4 5 5 5 5 5 5 4 4 4 4
2 1 1 1 2 3 0 3 3 2 3 4 4 5 6 5 3 2 5 5 4 4 3 3 2 2 2 2 2 2 2 3 3 4 4 5 5 5 5 4 4 3 4 3
0 1 1 2 2 2 2 4 4 2 2 6 6 5 5 5 3 3 6 7 6 4 4 3 2 2 2 2 2 3 3 3 3 3 4 4 5 5 4 4 3 3 3 3
1 1 2 3 2 2 3 5 3 0 4 7 6 5 4 3 3 4 6 6 5 5 5 4 3 3 2 2 2 3 3 3 3 3 4 4 4 4 4 4 3 3 3 3
1 1 1 1 2 3 4 4 2 3 5 6 5 5 5 4 4 4 5 5 5 5 5 4 4 4 3 3 3 3 3 3 3 4 4 4 4 4 4 4 4 3 4 4
1 1 1 2 2 1 2 2 2 3 5 5 5 5 4 4 4 5 5 4 4 4 4 4 4 4 4 4 3 4 3 3 4 5 4 4 4 4 4 4 4 3 3 3
1 1 2 3 2 2 2 2 4 4 4 5 4 4 3 3 4 4 4 4 4 4 4 4 4 4 4 4 4 3 3 3 4 5 4 4 4 4 4 3 3 3 3 3
2 1 2 4 3 4 2 4 5 6 5 4 4 3 3 2 3 3 3 3 3 4 4 4 4 4 4 4 4 4 3 4 5 5 4 4 4 4 4 4 3 3 2 3
2 2 3 3 1 2 3 4 5 5 5 4 4 4 4 2 2 2 2 3 3 3 4 4 4 4 4 4 4 4 4 4 4 4 4 3 3 3 3 4 4 6 4 5
Wind_Direction
196 203 214 218 218 237 229 226 235 237 211 210 227 240 239 228 225 220 212 203 191 188 178 157 154 151 147 147 148 150 149 146 141 142 142 138 142 137 126 126 126 128 124 117
199 222 225 228 227 240 250 246 247 248 222 227 234 242 239 228 225 219 208 201 190 182 174 164 156 158 162 161 158 155 154 153 152 155 150 140 137 137 132 125 127 131 126 123
222 239 225 224 227 232 242 235 237 244 287 258 249 250 230 222 219 217 211 195 180 175 173 164 158 160 160 166 166 165 161 157 155 147 132 122 109 106 114 130 141 145 133 127
244 254 233 220 225 229 239 241 252 239 233 233 207 250 226 204 199 195 192 185 184 171 167 164 162 162 171 172 166 165 159 156 154 149 148 152 157 158 163 157 148 143 135 134
251 243 226 224 236 238 252 265 252 241 241 251 228 240 251 189 195 192 186 182 172 164 162 161 157 168 173 161 160 166 158 157 157 159 162 165 158 149 140 143 143 146 143 142
260 245 235 249 247 246 244 273 306 256 231 237 219 216 250 200 194 187 179 170 168 153 144 145 146 145 158 158 157 161 161 161 161 163 165 168 162 153 149 153 157 157 150 149
331 279 322 333 324 230 179 140 151 193 210 228 206 213 229 194 167 172 167 158 143 127 126 129 137 147 165 171 173 166 165 166 164 165 168 172 170 161 161 160 164 160 158 157
323 271 288 328 267 225 215 201 185 197 204 239 206 215 179 136 94 100 98 98 99 100 121 144 154 162 174 176 174 171 170 166 164 167 170 172 170 160 159 160 160 164 164 162
339 297 304 281 276 225 205 231 272 291 254 218 216 185 158 82 61 61 68 66 68 56 57 93 150 160 171 178 178 180 173 167 165 166 165 171 170 160 156 153 148 153 151 150
337 306 304 321 319 285 255 215 211 235 236 227 213 201 194 157 148 89 75 55 37 34 23 29 61 136 158 175 178 172 166 167 165 163 167 170 167 160 153 149 151 151 148 146
352 296 304 316 287 268 275 232 233 238 262 244 217 214 22 72 105 105 43 48 33 23 15 16 25 78 108 129 160 160 160 156 159 161 158 155 153 149 146 147 147 146 145 148
340 304 284 285 313 359 335 254 227 217 257 261 274 257 20 55 51 53 44 33 22 25 19 19 30 50 78 109 150 150 158 158 165 161 152 149 144 141 144 144 142 139 141 144
347 345 310 332 34 357 331 312 290 288 276 260 248 220 30 48 40 37 36 28 27 26 22 18 23 34 48 46 67 143 155 156 156 151 146 143 142 143 145 142 140 138 138 138
356 311 243 252 281 270 283 295 297 255 247 267 251 257 337 30 27 18 20 25 35 35 26 16 13 15 22 23 28 30 114 139 141 142 141 143 145 143 139 133 133 136 136 136
2 308 294 292 293 271 273 281 263 236 257 256 287 304 324 4 11 10 10 20 33 24 17 13 8 5 7 10 11 11 68 123 138 138 137 139 136 131 127 126 127 126 127 132
357 315 305 291 280 283 297 298 274 258 267 273 296 305 342 0 16 20 9 17 14 8 8 6 6 6 359 359 360 360 25 111 130 135 134 131 129 129 129 129 126 122 122 123
321 322 313 288 317 334 286 293 272 285 309 271 274 297 343 346 347 347 345 358 360 360 355 354 353 350 344 345 350 346 1 92 116 128 128 129 131 130 131 133 127 127 127 120
248 309 289 287 318 246 233 42 2 312 330 333 332 336 338 337 334 339 347 12 3 350 348 349 351 349 349 352 352 349 25 101 117 124 127 128 130 130 129 127 127 128 127 127
217 219 286 278 273 263 342 19 7 330 312 0 349 340 341 342 336 0 21 17 3 354 350 349 347 347 357 1 4 20 57 93 111 118 125 127 130 130 129 129 130 129 124 123
359 153 261 282 273 263 341 350 329 307 285 5 351 331 334 351 331 323 0 2 360 7 6 0 9 19 18 17 33 55 73 84 95 109 121 125 129 131 133 134 130 121 122 123
346 279 247 262 259 265 351 332 345 40 297 331 337 334 332 331 307 320 343 352 359 6 9 13 32 36 26 28 56 71 74 79 84 96 104 114 119 121 122 117 114 118 116 110
286 279 249 256 249 262 360 11 24 312 320 332 341 345 344 343 346 348 352 356 2 10 15 16 32 36 33 42 68 77 71 69 80 90 99 103 107 112 111 110 110 115 118 115
219 208 255 239 240 306 8 356 337 333 327 335 341 348 353 344 340 344 349 356 7 12 12 17 33 36 37 39 52 70 64 77 84 91 93 97 98 99 107 113 115 117 119 119
232 192 248 276 271 316 336 343 345 339 330 334 341 344 341 333 333 340 350 2 9 13 14 20 34 40 34 34 40 51 66 78 90 92 88 90 95 95 91 91 99 105 109 110
277 268 257 258 290 318 331 355 346 343 344 344 349 346 336 336 337 347 358 8 14 15 14 23 31 36 30 33 41 43 57 76 87 88 87 84 86 93 87 82 80 89 84 109
219 228 241 256 288 273 293 328 338 338 339 342 353 356 359 1 354 0 10 17 21 22 23 30 35 33 30 38 42 45 51 72 88 89 83 85 93 95 93 92 79 72 86 77